This is the latest recevied weather packets stored in our database for station/object KC3BBT-13. If no packets are shown the sender has not sent any weather packets the latest 10 day(s).
| Time | Temp. | Humidity | Pressure | Rain* | Wind** | Luminosity | Snow |
|---|---|---|---|---|---|---|---|
| 1778001101 | 27.78° C | 36% | 1011.9 hPa | 0 mm | - | - | - |
| 1778000374 | 27.22° C | 38% | 1012.1 hPa | 0 mm | - | - | - |
| 1777999471 | 27.22° C | 38% | 1012.3 hPa | 0 mm | - | - | - |
| 1777998676 | 26.67° C | 39% | 1012.5 hPa | 0 mm | - | - | - |
| 1777998079 | 26.11° C | 40% | 1012.9 hPa | 0 mm | - | - | - |
| 1777997923 | 26.11° C | 40% | 1012.9 hPa | 0 mm | - | - | - |
| 1777997037 | 26.11° C | 42% | 1013 hPa | 0 mm | - | - | - |
| 1777996266 | 25.56° C | 42% | 1013.2 hPa | 0 mm | - | - | - |
| 1777995604 | 25° C | 44% | 1013.1 hPa | 0 mm | - | - | - |
| 1777995511 | 25° C | 44% | 1013.1 hPa | 0 mm | - | - | - |
| 1777994766 | 25° C | 45% | 1013.2 hPa | 0 mm | - | - | - |
| 1777993906 | 23.89° C | 46% | 1013.1 hPa | 0 mm | - | - | - |
| 1777993048 | 22.78° C | 47% | 1013.1 hPa | 0 mm | - | - | - |
| 1777992241 | 22.22° C | 49% | 1013.2 hPa | 0 mm | - | - | - |
| 1777991579 | 21.67° C | 49% | 1013.1 hPa | 0 mm | - | - | - |
| 1777991421 | 21.67° C | 49% | 1013.1 hPa | 0 mm | - | - | - |
| 1777990546 | 21.11° C | 51% | 1013.3 hPa | 0 mm | - | - | - |
| 1777989773 | 20.56° C | 52% | 1013.3 hPa | 0 mm | - | - | - |
| 1777988941 | 20° C | 53% | 1013.2 hPa | 0 mm | - | - | - |
| 1777988121 | 20° C | 53% | 1013.3 hPa | 0 mm | - | - | - |
| 1777987256 | 19.44° C | 55% | 1013.4 hPa | 0 mm | - | - | - |
| 1777986381 | 18.89° C | 55% | 1013.4 hPa | 0 mm | - | - | - |
| 1777985571 | 18.33° C | 57% | 1013.6 hPa | 0 mm | - | - | - |
| 1777984816 | 17.78° C | 57% | 1013.6 hPa | 0 mm | - | - | - |
| 1777984018 | 17.78° C | 58% | 1013.7 hPa | 0 mm | - | - | - |
* Rain latest hour (hover to see other rain measurements)
** Current wind speed in m/s (hover to see current wind gust speed)